Location: ?????????
(44.2517°N, 135.2292°E)
Time: 08:07:13
(UTC+00:00)

SL-16 R/B - Pass Details

Date: 19 May 2025
Orbit: 841 x 844 km, 71.0° (Epoch: 23 June)

Event Time Altitude Azimuth Distance (km) Brightness Sun altitude
Rises 14:13:08 0° 335° (NNW) 3,412 6.6 -25.1°
Reaches altitude 10° 14:15:36 10° 338° (NNW) 2,473 5.6 -25.2°
Maximum altitude 14:21:16 74° 63° (ENE) 879 2.2 -25.4°
Enters shadow 14:22:11 61° 123° (ESE) 952 2.2 -25.4°
